| time (UTC) | temp F | wind direction | speed knots | gust knots | rain 1hr in | rain 24hr in | rain mn in | humidity % | barometer mb |
| 20260504182707 | 69 | 111 | 1.7 | 7.8 | 0.00 | 0.00 | 0.00 | 35 | 1008.5 |
| 20260504182204 | 66 | 99 | 4.3 | 7.0 | 0.00 | 0.00 | 0.00 | 35 | 1008.6 |
| 20260504181701 | 66 | 115 | 4.3 | 7.8 | 0.00 | 0.00 | 0.00 | 36 | 1008.6 |
| 20260504181158 | 66 | 87 | 0.9 | 7.0 | 0.00 | 0.00 | 0.00 | 38 | 1008.5 |
| 20260504180657 | 68 | 63 | 1.7 | 6.1 | 0.00 | 0.00 | 0.00 | 35 | 1008.6 |
| 20260504180155 | 69 | 59 | 3.5 | 7.0 | 0.00 | 0.00 | 0.00 | 33 | 1008.5 |
| 20260504175652 | 69 | 89 | 3.5 | 7.0 | 0.00 | 0.00 | 0.00 | 34 | 1008.6 |
| 20260504175149 | 68 | 308 | 0.0 | 5.2 | 0.00 | 0.00 | 0.00 | 34 | 1008.5 |
| 20260504174647 | 67 | 325 | 3.5 | 8.7 | 0.00 | 0.00 | 0.00 | 35 | 1008.4 |
| 20260504174144 | 68 | 287 | 0.9 | 6.1 | 0.00 | 0.00 | 0.00 | 34 | 1008.5 |
| 20260504173641 | 68 | 261 | 2.6 | 13.0 | 0.00 | 0.00 | 0.00 | 34 | 1008.8 |
| 20260504173138 | 68 | 239 | 1.7 | 6.1 | 0.00 | 0.00 | 0.00 | 35 | 1008.6 |
| 20260504172635 | 67 | 115 | 0.9 | 13.0 | 0.00 | 0.00 | 0.00 | 35 | 1008.8 |
| 20260504172131 | 65 | 95 | 1.7 | 5.2 | 0.00 | 0.00 | 0.00 | 35 | 1008.5 |
| 20260504171628 | 65 | 122 | 1.7 | 6.1 | 0.00 | 0.00 | 0.00 | 36 | 1008.7 |
| 20260504171125 | 65 | 91 | 1.7 | 2.6 | 0.00 | 0.00 | 0.00 | 36 | 1008.5 |
| 20260504170621 | 64 | 197 | 0.9 | 2.6 | 0.00 | 0.00 | 0.00 | 36 | 1008.8 |
| 20260504170119 | 65 | 285 | 3.5 | 12.2 | 0.00 | 0.00 | 0.00 | 36 | 1008.9 |
| 20260504151004 | 60 | 112 | 3.5 | 6.1 | 0.00 | 0.00 | 0.00 | 41 | 1009.7 |
| 20260504150502 | 60 | 192 | 3.5 | 6.1 | 0.00 | 0.00 | 0.00 | 40 | 1009.8 |
| 20260504140928 | 60 | 132 | 5.2 | 8.7 | 0.00 | 0.00 | 0.00 | 41 | 1010.0 |
| 20260504140424 | 60 | 308 | 1.7 | 3.5 | 0.00 | 0.00 | 0.00 | 42 | 1009.9 |
| 20260504130349 | 55 | 91 | 0.9 | 3.5 | 0.00 | 0.00 | 0.00 | 50 | 1010.6 |
| 20260504120312 | 47 | 140 | 0.0 | 3.5 | 0.00 | 0.00 | 0.00 | 63 | 1011.3 |
| 20260504110236 | 40 | 148 | 0.0 | 0.0 | 0.00 | 0.00 | 0.00 | 82 | 1011.2 |
| 20260504100154 | 38 | 128 | 0.0 | 0.0 | 0.00 | 0.00 | 0.00 | 85 | 1011.0 |
| 20260504090117 | 39 | 150 | 0.0 | 0.0 | 0.00 | 0.00 | 0.00 | 82 | 1010.8 |
| 20260504081552 | 41 | 141 | 0.0 | 0.9 | 0.00 | 0.00 | 0.00 | 74 | 1010.9 |
| 20260504081048 | 39 | 159 | 0.0 | 2.6 | 0.00 | 0.00 | 0.00 | 77 | 1011.0 |
| 20260504080545 | 38 | 167 | 0.0 | 0.0 | 0.00 | 0.00 | 0.00 | 81 | 1011.0 |
| 20260504050358 | 33 | 294 | 0.0 | 0.0 | 0.00 | 0.00 | 0.00 | 86 | 1011.1 |
| 20260504045855 | 33 | 294 | 0.0 | 0.0 | 0.00 | 0.00 | 0.00 | 86 | 1011.0 |
| 20260504045350 | 33 | 294 | 0.0 | 0.0 | 0.00 | 0.00 | 0.00 | 86 | 1011.2 |
| 20260504044847 | 33 | 294 | 0.0 | 0.0 | 0.00 | 0.00 | 0.00 | 86 | 1011.2 |
| 20260504044345 | 33 | 294 | 0.0 | 0.0 | 0.00 | 0.00 | 0.00 | 87 | 1011.2 |
| 20260504043842 | 32 | 294 | 0.0 | 0.0 | 0.00 | 0.00 | 0.00 | 88 | 1011.1 |
| 20260504043338 | 32 | 294 | 0.0 | 0.0 | 0.00 | 0.00 | 0.00 | 88 | 1011.2 |
| 20260504042836 | 31 | 294 | 0.0 | 0.0 | 0.00 | 0.00 | 0.00 | 88 | 1011.1 |
| 20260504042332 | 31 | 294 | 0.0 | 0.0 | 0.00 | 0.00 | 0.00 | 88 | 1011.3 |
| 20260504041828 | 31 | 294 | 0.0 | 0.0 | 0.00 | 0.00 | 0.00 | 89 | 1011.1 |
| 20260504041325 | 30 | 294 | 0.0 | 0.0 | 0.00 | 0.00 | 0.00 | 88 | 1011.3 |
| 20260504040821 | 30 | 294 | 0.0 | 0.0 | 0.00 | 0.00 | 0.00 | 88 | 1011.1 |
| 20260504040319 | 30 | 294 | 0.0 | 0.0 | 0.00 | 0.00 | 0.00 | 87 | 1011.0 |
| 20260504035815 | 30 | 294 | 0.0 | 0.0 | 0.00 | 0.00 | 0.00 | 87 | 1010.9 |
| 20260504035312 | 30 | 294 | 0.0 | 0.0 | 0.00 | 0.00 | 0.00 | 87 | 1010.9 |
| 20260504034809 | 31 | 294 | 0.0 | 0.0 | 0.00 | 0.00 | 0.00 | 87 | 1010.9 |
| 20260504034307 | 31 | 294 | 0.0 | 0.0 | 0.00 | 0.00 | 0.00 | 86 | 1010.9 |
| 20260504033804 | 31 | 294 | 0.0 | 0.0 | 0.00 | 0.00 | 0.00 | 86 | 1010.9 |
| 20260504033302 | 31 | 294 | 0.0 | 0.0 | 0.00 | 0.00 | 0.00 | 86 | 1011.0 |
| 20260504032758 | 31 | 294 | 0.0 | 0.0 | 0.00 | 0.00 | 0.00 | 87 | 1010.7 |
| 20260504032255 | 31 | 294 | 0.0 | 0.0 | 0.00 | 0.00 | 0.00 | 87 | 1010.9 |
| 20260504031752 | 30 | 294 | 0.0 | 0.0 | 0.00 | 0.00 | 0.00 | 87 | 1011.0 |
| 20260504031249 | 30 | 294 | 0.0 | 0.0 | 0.00 | 0.00 | 0.00 | 86 | 1010.9 |
| 20260504030745 | 31 | 294 | 0.0 | 0.0 | 0.00 | 0.00 | 0.00 | 85 | 1010.8 |
| 20260504030243 | 31 | 294 | 0.0 | 0.0 | 0.00 | 0.00 | 0.00 | 83 | 1010.8 |
| 20260504025739 | 31 | 294 | 0.0 | 0.0 | 0.00 | 0.00 | 0.00 | 82 | 1010.7 |
| 20260504025236 | 31 | 294 | 0.0 | 0.0 | 0.00 | 0.00 | 0.00 | 82 | 1010.9 |
| 20260504024733 | 32 | 294 | 0.0 | 0.0 | 0.00 | 0.00 | 0.00 | 81 | 1010.9 |
| 20260504024229 | 32 | 294 | 0.0 | 0.0 | 0.00 | 0.00 | 0.00 | 80 | 1010.8 |
| 20260504023726 | 33 | 294 | 0.0 | 0.0 | 0.00 | 0.00 | 0.00 | 79 | 1011.0 |
| 20260504023222 | 33 | 294 | 0.0 | 0.0 | 0.00 | 0.00 | 0.00 | 79 | 1010.7 |
| 20260504022718 | 32 | 294 | 0.0 | 0.0 | 0.00 | 0.00 | 0.00 | 80 | 1010.9 |
| 20260504022215 | 33 | 294 | 0.0 | 0.0 | 0.00 | 0.00 | 0.00 | 81 | 1010.9 |
| 20260504021712 | 33 | 294 | 0.0 | 0.0 | 0.00 | 0.00 | 0.00 | 79 | 1010.9 |
| 20260504021209 | 33 | 294 | 0.0 | 0.0 | 0.00 | 0.00 | 0.00 | 79 | 1010.8 |
| 20260504020706 | 33 | 294 | 0.0 | 0.0 | 0.00 | 0.00 | 0.00 | 78 | 1010.9 |
| 20260504020202 | 33 | 294 | 0.0 | 0.0 | 0.00 | 0.00 | 0.00 | 78 | 1011.0 |
| 20260504015658 | 33 | 294 | 0.0 | 0.0 | 0.00 | 0.00 | 0.00 | 77 | 1010.8 |
| 20260504015155 | 34 | 294 | 0.0 | 0.0 | 0.00 | 0.00 | 0.00 | 75 | 1010.9 |
| 20260504014650 | 34 | 294 | 0.0 | 0.0 | 0.00 | 0.00 | 0.00 | 75 | 1010.6 |
| 20260504014148 | 34 | 294 | 0.0 | 0.0 | 0.00 | 0.00 | 0.00 | 77 | 1010.8 |
| 20260504013646 | 35 | 294 | 0.0 | 0.0 | 0.00 | 0.00 | 0.00 | 76 | 1010.7 |
| 20260504013142 | 35 | 294 | 0.0 | 0.0 | 0.00 | 0.00 | 0.00 | 75 | 1010.7 |
| 20260504012639 | 35 | 294 | 0.0 | 0.0 | 0.00 | 0.00 | 0.00 | 75 | 1010.6 |
| 20260504012137 | 35 | 294 | 0.0 | 0.0 | 0.00 | 0.00 | 0.00 | 74 | 1010.5 |
| 20260504011634 | 35 | 294 | 0.0 | 0.0 | 0.00 | 0.00 | 0.00 | 73 | 1010.5 |
| 20260504011131 | 36 | 294 | 0.0 | 0.0 | 0.00 | 0.00 | 0.00 | 72 | 1010.4 |
| 20260504010626 | 36 | 294 | 0.0 | 0.0 | 0.00 | 0.00 | 0.00 | 72 | 1010.4 |
| 20260504010122 | 36 | 294 | 0.0 | 0.0 | 0.00 | 0.00 | 0.00 | 70 | 1010.2 |
| 20260504005619 | 37 | 295 | 0.0 | 0.0 | 0.00 | 0.00 | 0.00 | 71 | 1010.1 |
| 20260504005116 | 37 | 294 | 0.0 | 0.0 | 0.00 | 0.00 | 0.00 | 69 | 1010.0 |
| 20260504004615 | 37 | 295 | 0.0 | 0.0 | 0.00 | 0.00 | 0.00 | 68 | 1010.0 |
| 20260504004111 | 38 | 295 | 0.0 | 0.0 | 0.00 | 0.00 | 0.00 | 70 | 1009.9 |
| 20260504003608 | 38 | 295 | 0.0 | 0.0 | 0.00 | 0.00 | 0.00 | 67 | 1010.0 |
| 20260504003104 | 39 | 295 | 0.0 | 0.0 | 0.00 | 0.00 | 0.00 | 66 | 1009.9 |
| 20260504002601 | 39 | 295 | 0.0 | 0.0 | 0.00 | 0.00 | 0.00 | 65 | 1009.9 |
| 20260504002059 | 40 | 295 | 0.0 | 0.0 | 0.00 | 0.00 | 0.00 | 59 | 1010.0 |
| 20260504001556 | 40 | 295 | 0.0 | 0.0 | 0.00 | 0.00 | 0.00 | 58 | 1009.8 |
| 20260504001052 | 41 | 295 | 0.0 | 0.0 | 0.00 | 0.00 | 0.00 | 66 | 1009.8 |
| 20260504000549 | 42 | 295 | 0.0 | 0.0 | 0.00 | 0.00 | 0.00 | 61 | 1009.9 |
| 20260504000046 | 42 | 295 | 0.0 | 0.0 | 0.00 | 0.00 | 0.00 | 54 | 1009.6 |
| 20260503235545 | 43 | 7 | 0.0 | 0.0 | 0.00 | 0.00 | 0.00 | 54 | 1009.7 |
| 20260503235041 | 44 | 327 | 0.0 | 0.0 | 0.00 | 0.00 | 0.00 | 53 | 1009.5 |
| 20260503234539 | 44 | 327 | 0.0 | 0.0 | 0.00 | 0.00 | 0.00 | 50 | 1009.6 |
| 20260503234037 | 44 | 227 | 0.0 | 0.0 | 0.00 | 0.00 | 0.00 | 50 | 1009.6 |
| 20260503233533 | 45 | 297 | 0.0 | 0.0 | 0.00 | 0.00 | 0.00 | 50 | 1009.7 |
| 20260503233029 | 45 | 241 | 0.0 | 2.6 | 0.00 | 0.00 | 0.00 | 48 | 1009.4 |
| 20260503232527 | 45 | 202 | 0.0 | 0.9 | 0.00 | 0.00 | 0.00 | 49 | 1009.4 |
| 20260503232024 | 46 | 186 | 0.0 | 0.0 | 0.00 | 0.00 | 0.00 | 49 | 1009.5 |
| 20260503231522 | 46 | 264 | 0.0 | 3.5 | 0.00 | 0.00 | 0.00 | 48 | 1009.5 |
| 20260503231018 | 47 | 320 | 0.0 | 0.0 | 0.00 | 0.00 | 0.00 | 48 | 1009.3 |
| 20260503230515 | 47 | 56 | 0.0 | 0.9 | 0.00 | 0.00 | 0.00 | 47 | 1009.4 |
| 20260503230013 | 47 | 284 | 0.0 | 0.9 | 0.00 | 0.00 | 0.00 | 46 | 1009.1 |
| 20260503225509 | 47 | 2 | 0.0 | 0.0 | 0.00 | 0.00 | 0.00 | 47 | 1009.3 |
| 20260503225004 | 47 | 69 | 0.0 | 0.9 | 0.00 | 0.00 | 0.00 | 45 | 1009.1 |
| 20260503224501 | 47 | 258 | 0.0 | 1.7 | 0.00 | 0.00 | 0.00 | 44 | 1009.2 |
| 20260503223959 | 47 | 288 | 0.0 | 2.6 | 0.00 | 0.00 | 0.00 | 44 | 1009.2 |
| 20260503223456 | 48 | 349 | 0.9 | 3.5 | 0.00 | 0.00 | 0.00 | 44 | 1009.1 |
| 20260503222951 | 48 | 341 | 2.6 | 3.5 | 0.00 | 0.00 | 0.00 | 44 | 1009.2 |
| 20260503222450 | 49 | 3 | 0.9 | 5.2 | 0.00 | 0.00 | 0.00 | 42 | 1009.3 |
| 20260503221948 | 50 | 137 | 1.7 | 3.5 | 0.00 | 0.00 | 0.00 | 40 | 1009.0 |
| 20260503221446 | 49 | 264 | 0.0 | 7.0 | 0.00 | 0.00 | 0.00 | 43 | 1009.3 |
| 20260503220943 | 49 | 79 | 0.0 | 0.9 | 0.00 | 0.00 | 0.00 | 44 | 1009.2 |
| 20260503220439 | 49 | 228 | 0.9 | 5.2 | 0.00 | 0.00 | 0.00 | 45 | 1009.1 |
| 20260503215936 | 49 | 314 | 0.0 | 0.9 | 0.00 | 0.00 | 0.00 | 44 | 1009.1 |
| 20260503215433 | 49 | 219 | 0.0 | 3.5 | 0.00 | 0.00 | 0.00 | 44 | 1009.0 |
| 20260503214931 | 50 | 65 | 0.0 | 2.6 | 0.00 | 0.00 | 0.00 | 44 | 1009.0 |
| 20260503214428 | 52 | 5 | 0.0 | 7.0 | 0.00 | 0.00 | 0.00 | 39 | 1008.9 |
| 20260503213925 | 53 | 156 | 0.9 | 0.9 | 0.00 | 0.00 | 0.00 | 39 | 1008.8 |
| 20260503213424 | 51 | 165 | 0.0 | 1.7 | 0.00 | 0.00 | 0.00 | 40 | 1009.0 |
| 20260503212920 | 49 | 223 | 0.0 | 1.7 | 0.00 | 0.00 | 0.00 | 43 | 1008.9 |
| 20260503212417 | 48 | 303 | 2.6 | 5.2 | 0.00 | 0.00 | 0.00 | 43 | 1008.9 |
| 20260503211915 | 49 | 199 | 2.6 | 5.2 | 0.00 | 0.00 | 0.00 | 42 | 1008.9 |
| 20260503211412 | 50 | 331 | 0.0 | 1.7 | 0.00 | 0.00 | 0.00 | 41 | 1008.8 |
| 20260503210907 | 50 | 308 | 3.5 | 6.1 | 0.00 | 0.00 | 0.00 | 39 | 1008.5 |
| 20260503210404 | 49 | 121 | 0.0 | 2.6 | 0.00 | 0.00 | 0.00 | 43 | 1008.6 |
| 20260503205858 | 50 | 148 | 1.7 | 2.6 | 0.00 | 0.00 | 0.00 | 42 | 1008.5 |
| 20260503205355 | 51 | 350 | 3.5 | 6.1 | 0.00 | 0.00 | 0.00 | 40 | 1008.5 |
| 20260503204852 | 53 | 277 | 1.7 | 3.5 | 0.00 | 0.00 | 0.00 | 38 | 1008.5 |
| 20260503204349 | 53 | 342 | 1.7 | 2.6 | 0.00 | 0.00 | 0.00 | 38 | 1008.5 |
| 20260503203846 | 51 | 310 | 0.0 | 3.5 | 0.00 | 0.00 | 0.00 | 40 | 1008.6 |
| 20260503203344 | 51 | 225 | 0.9 | 2.6 | 0.00 | 0.00 | 0.00 | 42 | 1008.6 |
| 20260503202841 | 51 | 163 | 2.6 | 3.5 | 0.00 | 0.00 | 0.00 | 39 | 1008.4 |
| 20260503202339 | 52 | 330 | 0.9 | 2.6 | 0.00 | 0.00 | 0.00 | 38 | 1008.1 |
| 20260503201837 | 50 | 315 | 1.7 | 2.6 | 0.00 | 0.00 | 0.00 | 42 | 1008.2 |
| 20260503201333 | 50 | 336 | 3.5 | 7.0 | 0.00 | 0.00 | 0.00 | 40 | 1008.5 |
| 20260503200831 | 53 | 238 | 1.7 | 5.2 | 0.00 | 0.00 | 0.00 | 40 | 1008.4 |
| 20260503200326 | 53 | 169 | 3.5 | 11.3 | 0.00 | 0.00 | 0.00 | 38 | 1008.3 |
| 20260503195824 | 53 | 123 | 1.7 | 7.0 | 0.00 | 0.00 | 0.00 | 39 | 1008.0 |
| 20260503195320 | 53 | 74 | 3.5 | 5.2 | 0.00 | 0.00 | 0.00 | 38 | 1008.0 |
| 20260503194818 | 50 | 156 | 0.0 | 6.1 | 0.00 | 0.00 | 0.00 | 41 | 1008.3 |
| 20260503194314 | 50 | 211 | 3.5 | 6.1 | 0.00 | 0.00 | 0.00 | 40 | 1008.5 |
| 20260503193810 | 49 | 296 | 1.7 | 3.5 | 0.00 | 0.00 | 0.00 | 41 | 1008.2 |
| 20260503193306 | 49 | 222 | 3.5 | 3.5 | 0.00 | 0.00 | 0.00 | 41 | 1008.1 |
| 20260503192802 | 49 | 339 | 7.0 | 13.0 | 0.00 | 0.00 | 0.00 | 41 | 1008.4 |
| 20260503192257 | 49 | 245 | 1.7 | 2.6 | 0.00 | 0.00 | 0.00 | 41 | 1008.3 |
| 20260503191754 | 50 | 49 | 3.5 | 7.8 | 0.00 | 0.00 | 0.00 | 40 | 1008.4 |
| 20260503191251 | 51 | 251 | 0.9 | 6.1 | 0.00 | 0.00 | 0.00 | 41 | 1007.9 |
| 20260503190748 | 51 | 346 | 0.0 | 3.5 | 0.00 | 0.00 | 0.00 | 41 | 1008.0 |
| 20260503190245 | 51 | 144 | 1.7 | 1.7 | 0.00 | 0.00 | 0.00 | 39 | 1008.0 |
| 20260503185742 | 51 | 73 | 0.0 | 3.5 | 0.00 | 0.00 | 0.00 | 38 | 1008.0 |
| 20260503185238 | 50 | 199 | 0.9 | 1.7 | 0.00 | 0.00 | 0.00 | 39 | 1008.0 |
| 20260503184732 | 51 | 49 | 1.7 | 2.6 | 0.00 | 0.00 | 0.00 | 39 | 1008.0 |
| 20260503184224 | 51 | 291 | 0.0 | 2.6 | 0.00 | 0.00 | 0.00 | 39 | 1008.0 |
| 20260503183720 | 50 | 103 | 0.9 | 3.5 | 0.00 | 0.00 | 0.00 | 39 | 1008.1 |
| 20260503183217 | 51 | 309 | 3.5 | 7.0 | 0.00 | 0.00 | 0.00 | 40 | 1008.1 |